Showing default

LUCH (OLYMP), 40258

Orbit data source: Space-Track

LUCH (OLYMP), 40258 is a payload satellite owned by FSB (CIS) in GEO that was launched on Sat, 27 Sep 2014 UTC via a PROTON-M/BRIZ-M launch vehicle from the Tyuratam Missile And Space Complex (TTMTR). Payload-class satellites include a variety of spacecraft equipped with specific instruments for various scientific and technological missions. These include communications satellites like Starlink; space stations such as the ISS; scientific satellites like the Hubble; Earth observation satellites from companies like Planet Labs, Umbra, and HawkEye 360; GPS; miniature CubeSats for education and research; and military/defense satellites.

Loading next visibility...
Identifier
40258, 2014-058A
Orbit
GEO
Country
Flag of CISCIS
Related business
Manufacturer
Resehetnev ISS
Mission
Non-operational Defense Communications
Bus & Motor
EKSPRESS-2000, Unknown motor
Mass
1,930 kg wet, ~1,800 kg dry
Launch date (UTC)
2014-09-27 (12 years ago)
Launch vehicle
PROTON-M/BRIZ-M
Launch site
Tyuratam Missile And Space Complex (TTMTR)
Object type
Payload
Rocket body
Debris
Shape & HBR
Cyl + 2 Pan + 2 Dish, 8.0 m
Radar Cross Section
40.926 m², Large (>1 m²)

Expand to show TLE details & history
Last TLE update: 10 hours ago

TLE from 10 hours ago
0 LUCH (OLYMP)
1 40258U 14058A   26131.21380477 -.00000052  00000-0  00000+0 0  9999
2 40258   1.7982  83.1341 0000706 249.5004 250.1876  0.99111119 40606
Epoch: 2026-05-11T05:07Z
TLE epoch observation values (Epoch: 2026-05-11T05:07:52.732Z)
Latitude
1.15019°
Longitude
-83.15745°
Altitude
36,115.518 km
Speed
3.063 km/s
True Right ascension
14h 51m 16s
True Declination
1° 08' 57"
Sunlit
Object was in daylight at epoch
Visualization orbit readout
Latitude
Unknown
Longitude
Unknown
Altitude
Unknown
Speed
Unknown
Apparent Right ascension
Unknown
Apparent Declination
Unknown
Sunlit
N/A
Visualization observer readout
Local Sidereal Time
23:45:11
Azimuth
Unknown
Elevation
Unknown
Doppler factor
Unknown
Orbital elements
Apogee altitude
36,119.204 km
Perigee altitude
36,113.204 km
Semi-major axis
42,494.341 km
Eccentricity
0.00007
Inclination
1.7982°
RAAN
83.1341°
Arg. of periapsis
249.5004°
True anomaly
250.17999°
Mean anomaly
250.1876°
Eccentric anomaly
250.18379°
Mean motion
0.24777 °/min
Orbital period
1,452.97 mins
BSTAR
0
Loading maneuver chart data...
Computing Atmospheric mass density...
Loading historical data...
Loading historical data...
Loading historical data...
Loading historical data...
Loading historical data...
Loading historical data...
Loading historical data...
Other satellites on launch #58 in the year 2014 (2014-09-27 UTC)

Documentation

Showing up to 5 results
|